Regional Weather Roundup
Issued by NWS

Home | Current Version | Previous Version | Graphics & Text | Print | Product List | Glossary On
Versions: 1 2 3 4 5 6 7 8 9 10 11 12 13 14 15 16 17 18 19 20 21 22 23 24 25 26 27 28 29 30 31 32 33 34 35 36 37 38 39 40 41 42 43 44 45 46 47 48 49 50
000
ASUS45 KBOU 271607
RWRCO

WEATHER ROUNDUP FOR COLORADO
NATIONAL WEATHER SERVICE DENVER/BOULDER CO
900 AM MST MON FEB 27 2017

NOTE: "FAIR" INDICATES FEW OR NO CLOUDS BELOW 12000 FEET WITH NO
SIGNIFICANT WEATHER AND/OR OBSTRUCTIONS TO VISIBILITY.

COZ001>005-013-030-031-271700-
...NORTHWEST COLORADO...

CITY           SKY/WX    TMP DP  RH WIND       PRES   REMARKS
CRAIG          CLOUDY    36  19  50 SW23G31   29.61S
HAYDEN         PTSUNNY   28  16  59 CALM      29.62S
MEEKER         CLOUDY    36  24  62 S15G23    29.63F
MOUNT WERNER   NOT AVBL
STEAMBOAT SPGS CLOUDY    20  10  63 CALM      29.63S
WALDEN         NOT AVBL
$$

COZ006>008-011-271700-
...WEST CENTRAL VALLEYS...

CITY           SKY/WX    TMP DP  RH WIND       PRES   REMARKS
GRAND JUNCTION CLOUDY    42  25  50 S9G22     29.71R
MONTROSE       FAIR      37  14  38 SW8       29.78R
EAGLE          PTSUNNY   23  10  58 E12       29.69S WCI  12
RIFLE          CLOUDY    40  22  48 W18G24    29.69R
DELTA          CLOUDY    42  23  46 SW5       29.77R
NUCLA          CLOUDY    36  23  60 S15G21    29.82R
$$

COZ017>023-064>068-271700-
...SOUTHWEST COLORADO...

CITY           SKY/WX    TMP DP  RH WIND       PRES   REMARKS
DURANGO        LGT SNOW  30  23  75 E6        29.89R WCI  24
CORTEZ         CLOUDY    37  25  61 SE14      29.85R
PAGOSA SPRINGS LGT SNOW  27  25  95 CALM      29.90R
TELLURIDE      FAIR      27  12  53 S23G37    29.75F WCI  12
WOLF CREEK PAS HVY SNOW  10  10 100 S36G46    29.79S VSB<1/4 WCI -13
$$

COZ009-010-012-014-032>034-037-058>063-271700-
...CENTRAL COLORADO...

CITY           SKY/WX    TMP DP  RH WIND       PRES   REMARKS
ASPEN          PTSUNNY   29  12  49 W5        29.67R WCI  24
BUENA VISTA    FAIR      31  10  40 SE14G20   29.72F WCI  21
COPPER MTN     FAIR      18   3  53 S12G18    29.65R WCI   5
BERTHOUD PASS  FAIR       9   0  66 W32G53    29.57S WCI -15
COTTONWOOD PAS FAIR      27  10  50 SE8       29.70S WCI  18
GUNNISON       FAIR       6  -2  69 E7        29.82F WCI  -6
KREMMLING      CLOUDY    25  10  54 CALM      29.69S
LEADVILLE      FAIR      19   4  51 SE10G20   29.67S WCI   7
MONARCH PASS     N/A     10   9  92 SW31G39   29.79S WCI -12
SALIDA         FAIR      33  15  47 S15G24    29.82S WCI  23
SUNLIGHT       NOT AVBL
WILKERSON PASS FAIR      18   9  68 S13G24    29.67F WCI   4
$$

COZ069>075-271700-
...SAN LUIS VALLEY/SANGRE DE CRISTO MOUNTAINS...

CITY           SKY/WX    TMP DP  RH WIND       PRES   REMARKS
ALAMOSA        FAIR      35  18  49 S17       29.81S WCI  25
LA VETA PASS   CLOUDY    21  14  73 S25G40    29.77S WCI   4
SAGUACHE       FAIR      25  10  54 W5        29.81S WCI  19
$$

COZ035-036-038>040-271700-
...NORTHERN COLORADO FRONT RANGE...

CITY           SKY/WX    TMP DP  RH WIND       PRES   REMARKS
DENVER INTL AP FAIR      40  13  33 S12       29.64F
DMNS CITY PARK   N/A     37   7  29 E8        29.64F
AURORA         MOSUNNY   41   9  26 S18       29.64F
FRONT RANGE AP NOT AVBL
ERIE MUNI ARPT FAIR      30  17  58 CALM      29.65F
BOULDER MUN AP FAIR      32  18  55 N3        29.63F
CENTENNIAL     FAIR      40   9  28 S13G22    29.65S
BROOMFIELD     MOSUNNY   32   7  34 S7        29.64F WCI  26
FORT COLLINS   FAIR      24  17  74 CALM      29.68S
LONGMONT       NOT AVBL
$$

COZ041-046-047-076>085-087-088-271700-
...PIKES PEAK/PALMER DIVIDE AND SOUTHERN FOOTHILLS...

CITY           SKY/WX    TMP DP  RH WIND       PRES   REMARKS
COLO. SPRINGS  FAIR      32   3  29 SE17      29.70F WCI  21
A. F. ACADEMY  FAIR      33   1  25 S7        29.68F WCI  27
SCHRIEVER AFB  FAIR      34   2  26 S10G20    29.72S WCI  26
ELLICOTT       NOT AVBL
FALCON         FAIR      33   2  26 SE6       29.71S WCI  28
FORT CARSON    FAIR      31   2  29 SE15      29.69F WCI  20
LIMON          FAIR      33  12  41 CALM      29.72F
MONUMENT HILL  FAIR      34   5  29 SE12      29.69F WCI  25
TRINIDAD       FAIR      41  10  28 VRB3      29.75F
$$

COZ042>045-048>051-090-091-271700-
...NORTHEAST COLORADO...

CITY           SKY/WX    TMP DP  RH WIND       PRES   REMARKS
GREELEY ARPT   FAIR      23  17  78 NW5       29.70F WCI  17
AKRON          FAIR      41  12  30 S12       29.69F
BURLINGTON     FAIR      37  20  50 SW14      29.74F
WRAY           NOT AVBL
STERLING       FAIR      23  18  80 SW3       29.71F
HOLYOKE        FAIR      34  23  64 S8        29.71F WCI  27
FORT MORGAN    FAIR      28  17  62 SW5       29.70F WCI  23
$$

COZ086-089-092>099-271700-
...SOUTHEAST COLORADO...

CITY           SKY/WX    TMP DP  RH WIND       PRES   REMARKS
PUEBLO         FAIR      29   6  38 E3        29.75F
LA JUNTA       FAIR      30  11  45 CALM      29.77F
LAMAR          FAIR      30  15  53 NW5       29.77F WCI  25
SPRINGFIELD      N/A     49  15  25 W9        29.76F
$$



USA.gov is the U.S. government's official web portal to all federal, state and local government web resources and services.